Madison, SD

4:02 AM CDT on March 24, 2017 (GMT -0500)
Madison Municipal

Weather History for KMDS - January, 2013

Change the Weather History Date:

Sunday, January 27, 2013

  Actual Average Record
Temperature  
Mean Temperature 30 °F -  
Max Temperature 32 °F 22 °F 39 °F (2016)
Min Temperature 28 °F 1 °F -11 °F (2014)
Degree Days  
Heating Degree Days 35    
Moisture  
Dew Point 31 °F    
Average Humidity 99    
Maximum Humidity 100    
Minimum Humidity 93    
Precipitation  
Precipitation 0.00 in - - ()
Sea Level Pressure  
Sea Level Pressure 29.76 in    
Wind  
Wind Speed 13 mph (SSE)    
Max Wind Speed 20 mph    
Max Gust Speed 24 mph    
Visibility 6 miles    
Events Fog , Rain    
Averages and records for this station are not official NWS values.
T = Trace of Precipitation, MM = Missing Value Source: NWS Daily Summary

Daily Weather History Graph

Daily Weather History Graph

Search for Another Location

Airport or City:

Trip Planner

Search our weather history database for the weather conditions in past years. The results will help you decide how hot, cold, wet, or windy it might be!

Date:

Astronomy

Jan. 27, 2013 Rise Set
Actual Time 7:50 AM CST 5:32 PM CST
Civil Twilight 7:19 AM CST 6:03 PM CST
Nautical Twilight 6:44 AM CST 6:38 PM CST
Astronomical Twilight 6:10 AM CST 7:12 PM CST
Moon 6:31 PM CST (1/27) 7:41 AM CST (1/27)
Length of Visible Light 10h 43m
Length of Day
9h 41m
Full, 100% of the Moon is Illuminated
Jan 27
Full
Feb 3
Last Quarter
Feb 10
New
Feb 17
First Quarter
Feb 25
Full

Hourly Weather History & Observations

Time (CST) Temp. Windchill Dew Point Humidity Pressure Visibility Wind Dir Wind Speed Gust Speed Precip Events Conditions
12:00 AM 30.2 °F 18.5 °F 28.4 °F 93% 29.89 in 10.0 mi South 17.3 mph - N/A   Clear
12:20 AM 30.2 °F 18.1 °F 28.4 °F 93% 29.88 in 10.0 mi South 18.4 mph 23.0 mph N/A   Clear
12:40 AM 30.2 °F 18.1 °F 28.4 °F 93% 29.87 in 10.0 mi South 18.4 mph 24.2 mph N/A   Clear
1:00 AM 28.4 °F 15.8 °F 28.4 °F 100% 29.86 in 10.0 mi South 18.4 mph 23.0 mph N/A   Clear
1:20 AM 28.4 °F 16.6 °F 28.4 °F 100% 29.86 in 10.0 mi South 16.1 mph - N/A   Clear
1:40 AM 30.2 °F 17.8 °F 30.2 °F 100% 29.86 in 10.0 mi South 19.6 mph - N/A   Clear
2:00 AM 30.2 °F 18.5 °F 30.2 °F 100% 29.85 in 10.0 mi South 17.3 mph - N/A   Clear
2:20 AM 30.2 °F 19.3 °F 30.2 °F 100% 29.85 in 10.0 mi South 15.0 mph - N/A   Clear
2:40 AM 30.2 °F 20.2 °F 30.2 °F 100% 29.85 in 10.0 mi South 12.7 mph - N/A   Clear
3:00 AM 30.2 °F 19.3 °F 30.2 °F 100% 29.84 in 10.0 mi South 15.0 mph - N/A   Clear
3:20 AM 30.2 °F 18.9 °F 30.2 °F 100% 29.84 in 10.0 mi South 16.1 mph - N/A   Clear
3:40 AM 30.2 °F 20.2 °F 30.2 °F 100% 29.83 in 10.0 mi South 12.7 mph 18.4 mph N/A   Clear
4:00 AM 30.2 °F 20.2 °F 30.2 °F 100% 29.82 in 10.0 mi SSE 12.7 mph 19.6 mph N/A   Clear
4:20 AM 30.2 °F 19.3 °F 30.2 °F 100% 29.82 in 10.0 mi SSE 15.0 mph 19.6 mph N/A   Clear
4:40 AM 30.2 °F 19.3 °F 30.2 °F 100% 29.81 in 10.0 mi South 15.0 mph 19.6 mph N/A   Clear
5:00 AM 32.0 °F 20.8 °F 30.2 °F 93% 29.80 in 10.0 mi South 17.3 mph 23.0 mph N/A   Clear
5:15 AM 32.0 °F 20.8 °F 30.2 °F 93% 29.80 in 10.0 mi South 17.3 mph - N/A   Mostly Cloudy
5:40 AM 32.0 °F 20.8 °F 30.2 °F 93% 29.80 in 10.0 mi South 17.3 mph - N/A   Partly Cloudy
6:00 AM 30.2 °F 19.8 °F 30.2 °F 100% 29.81 in 10.0 mi South 13.8 mph - N/A   Clear
6:20 AM 30.2 °F 20.2 °F 30.2 °F 100% 29.80 in 10.0 mi South 12.7 mph - N/A   Clear
6:40 AM 30.2 °F 21.9 °F 30.2 °F 100% 29.79 in 10.0 mi SSE 9.2 mph - N/A   Clear
7:00 AM 30.2 °F 20.2 °F 30.2 °F 100% 29.79 in 10.0 mi SSE 12.7 mph 18.4 mph N/A   Partly Cloudy
7:20 AM 30.2 °F 21.3 °F 30.2 °F 100% 29.79 in 10.0 mi SSE 10.4 mph - N/A   Scattered Clouds
7:40 AM 30.2 °F 21.9 °F 30.2 °F 100% 29.78 in 10.0 mi SSE 9.2 mph - N/A   Mostly Cloudy
8:00 AM 30.2 °F 20.8 °F 30.2 °F 100% 29.79 in 10.0 mi SSE 11.5 mph - N/A   Scattered Clouds
8:20 AM 30.2 °F 20.8 °F 30.2 °F 100% 29.78 in 10.0 mi SSE 11.5 mph - N/A   Clear
8:40 AM 30.2 °F 21.9 °F 30.2 °F 100% 29.78 in 10.0 mi SSE 9.2 mph - N/A   Partly Cloudy
9:00 AM 30.2 °F 20.8 °F 30.2 °F 100% 29.77 in 10.0 mi SSE 11.5 mph - N/A   Mostly Cloudy
9:20 AM 30.2 °F 20.2 °F 30.2 °F 100% 29.77 in 10.0 mi SSE 12.7 mph - N/A   Overcast
9:40 AM 32.0 °F 21.6 °F 32.0 °F 100% 29.77 in 10.0 mi South 15.0 mph 18.4 mph N/A   Overcast
10:00 AM 32.0 °F 22.1 °F 32.0 °F 100% 29.78 in 10.0 mi South 13.8 mph - N/A   Overcast
10:20 AM 32.0 °F 22.5 °F 32.0 °F 100% 29.77 in 10.0 mi South 12.7 mph 18.4 mph N/A   Overcast
10:40 AM 32.0 °F 23.6 °F 32.0 °F 100% 29.77 in 10.0 mi SSE 10.4 mph - N/A   Overcast
11:00 AM 32.0 °F 23.6 °F 32.0 °F 100% 29.77 in 10.0 mi SSE 10.4 mph - N/A   Overcast
11:20 AM 32.0 °F 24.2 °F 32.0 °F 100% 29.76 in 10.0 mi SSE 9.2 mph - N/A Rain Light Rain
11:40 AM 32.0 °F 23.6 °F 32.0 °F 100% 29.75 in 10.0 mi South 10.4 mph - N/A   Overcast
12:00 PM 32.0 °F 23.6 °F 32.0 °F 100% 29.74 in 10.0 mi SSE 10.4 mph - N/A Rain Light Rain
12:20 PM 32.0 °F 24.2 °F 32.0 °F 100% 29.73 in 10.0 mi SSE 9.2 mph - N/A Rain Light Rain
12:40 PM 32.0 °F 23.6 °F 32.0 °F 100% 29.72 in 10.0 mi SSE 10.4 mph - N/A Rain Light Rain
1:00 PM 32.0 °F 23.0 °F 32.0 °F 100% 29.71 in 10.0 mi SSE 11.5 mph - N/A Rain Light Rain
1:20 PM 32.0 °F 24.2 °F 32.0 °F 100% 29.71 in 9.0 mi SSE 9.2 mph - N/A   Overcast
1:40 PM 32.0 °F 23.0 °F 32.0 °F 100% 29.70 in 2.5 mi SSE 11.5 mph - N/A Rain Light Rain
2:00 PM 32.0 °F 23.6 °F 32.0 °F 100% 29.69 in 0.8 mi SSE 10.4 mph - N/A   Overcast
2:20 PM 32.0 °F 24.8 °F 32.0 °F 100% 29.69 in 0.5 mi SSE 8.1 mph - N/A Fog Fog
2:40 PM 32.0 °F 24.2 °F 32.0 °F 100% 29.69 in 0.2 mi South 9.2 mph - N/A Fog Fog
3:00 PM 32.0 °F 24.2 °F 32.0 °F 100% 29.70 in 0.2 mi South 9.2 mph - N/A Fog Fog
3:20 PM 32.0 °F 25.6 °F 32.0 °F 100% 29.70 in 0.2 mi South 6.9 mph - N/A Fog Fog
3:40 PM 32.0 °F 24.8 °F 32.0 °F 100% 29.70 in 0.2 mi SSE 8.1 mph - N/A Fog Fog
4:00 PM 32.0 °F 28.7 °F 32.0 °F 100% 29.70 in 0.2 mi South 3.5 mph - N/A Fog Fog
4:20 PM 32.0 °F 27.5 °F 32.0 °F 100% 29.71 in 0.2 mi South 4.6 mph - N/A Fog Fog
4:40 PM 32.0 °F 28.7 °F 32.0 °F 100% 29.71 in 0.2 mi South 3.5 mph - N/A Fog Fog
5:00 PM 32.0 °F 27.5 °F 32.0 °F 100% 29.71 in 0.2 mi South 4.6 mph - N/A Fog Fog
5:20 PM 32.0 °F 28.7 °F 32.0 °F 100% 29.71 in 0.2 mi SSE 3.5 mph - N/A Fog Fog
5:40 PM 32.0 °F 28.7 °F 32.0 °F 100% 29.71 in 0.2 mi ESE 3.5 mph - N/A Fog Fog
6:00 PM 32.0 °F 27.5 °F 32.0 °F 100% 29.72 in 0.2 mi ESE 4.6 mph - N/A Fog Fog
6:20 PM 32.0 °F 28.7 °F 32.0 °F 100% 29.72 in 0.2 mi SE 3.5 mph - N/A Fog Fog
6:40 PM 32.0 °F 25.6 °F 32.0 °F 100% 29.72 in 0.2 mi ESE 6.9 mph - N/A Fog Fog
7:00 PM 32.0 °F 25.6 °F 32.0 °F 100% 29.72 in 0.2 mi SE 6.9 mph - N/A   Overcast
7:20 PM 32.0 °F 25.6 °F 32.0 °F 100% 29.72 in 0.2 mi SE 6.9 mph - N/A Fog Fog
8:00 PM 32.0 °F 24.8 °F 32.0 °F 100% 29.72 in 0.2 mi SSE 8.1 mph - N/A Rain Light Rain
8:20 PM 32.0 °F 23.6 °F 32.0 °F 100% 29.72 in 0.2 mi SSE 10.4 mph - N/A Fog Light Freezing Fog
8:40 PM 32.0 °F 24.2 °F 32.0 °F 100% 29.72 in 0.2 mi South 9.2 mph - N/A Fog Light Freezing Fog
9:00 PM 32.0 °F 24.8 °F 32.0 °F 100% 29.73 in 0.2 mi SSW 8.1 mph - N/A Fog Light Freezing Fog
9:20 PM 32.0 °F 25.6 °F 32.0 °F 100% 29.73 in 0.2 mi SSW 6.9 mph - N/A Fog Light Freezing Fog
9:40 PM 32.0 °F 27.5 °F 32.0 °F 100% 29.74 in 0.2 mi SSW 4.6 mph - N/A Fog Light Freezing Fog
10:00 PM 32.0 °F 27.5 °F 32.0 °F 100% 29.73 in 0.2 mi SSW 4.6 mph - N/A Fog Fog
10:20 PM 32.0 °F 27.5 °F 32.0 °F 100% 29.73 in 0.2 mi South 4.6 mph - N/A Fog Fog
10:40 PM 32.0 °F - 32.0 °F 100% 29.74 in 0.2 mi Calm Calm - N/A Fog Fog
11:00 PM 32.0 °F 28.7 °F 32.0 °F 100% 29.75 in 0.2 mi WNW 3.5 mph - N/A Fog Light Freezing Fog
11:20 PM 32.0 °F - 32.0 °F 100% 29.75 in 0.5 mi Calm Calm - N/A Fog Fog
11:40 PM 32.0 °F - 32.0 °F 100% 29.75 in 0.2 mi Calm Calm - N/A Fog Fog